Location: Buchberg
(46.9333°N, 15.8500°E)
Time: 19:51:01
(UTC+00:00)

ARIANE 5 R/B - Pass Details

Date: 14 July 2020
Orbit: 749 x 794 km, 98.6° (Epoch: 05 August)

Event Time Altitude Azimuth Distance (km) Brightness Sun altitude
Rises 01:11:02 0° 21° (NNE) 3,236 7.5 -15.6°
Reaches altitude 10° 01:13:30 10° 30° (NNE) 2,312 6.4 -15.3°
Maximum altitude 01:18:13 37° 97° (E) 1,185 3.7 -14.9°
Drops below altitude 10° 01:22:57 10° 165° (SSE) 2,324 4.6 -14.5°
Enters shadow 01:23:10 - 166° (SSE) 2,401 4.7 -14.5°
